Japanese version Home page |
Updated on September 3, 2011 |
Profile
|
Orbital ElementsThe following orbital elements are taken from MPO 65996 Epoch 2010 July 23.0 TT = JDT 2455400.5 MPC M 43.69601 (2000.0) P Q n 0.00787034 Peri. 6.25895 -0.99685669 +0.07919617 a 25.0307376 Node 178.27893 -0.07546308 -0.94080778 e 0.2451665 Incl. 4.14604 -0.02412615 -0.32955831 P 125 H 8.0 G 0.15 U 2 From 81 observations at 6 oppositions, 1995-2001, mean residual 0".59.
|
Magnitudes GraphH = 8.0 G = 0.15
|
The orbital elements are published at the MPC Ephemerides and Orbital Elements.
|